Regional Weather Roundup
Issued by NWS

Home | Current Version | Previous Version | Graphics & Text | Print | Product List | Glossary On
Versions: 1 2 3 4 5 6 7 8 9 10 11 12 13 14 15 16 17 18 19 20 21 22 23 24 25 26 27 28 29 30 31 32 33 34 35 36 37 38 39 40 41 42 43 44 45 46 47 48 49 50
000
ASUS43 KFSD 222002
RWRSD

WEATHER ROUNDUP FOR SOUTH DAKOTA
NATIONAL WEATHER SERVICE SIOUX FALLS SD
300 PM CDT FRI JUL 22 2016

NOTE: "FAIR" INDICATES FEW OR NO CLOUDS BELOW 12,000 FEET WITH NO
SIGNIFICANT WEATHER AND/OR OBSTRUCTIONS TO VISIBILITY.


SDZ001>005-009-010-012>017-222100-
NORTHWEST AND NORTH CENTRAL SOUTH DAKOTA

CITY           SKY/WX    TMP DP  RH WIND       PRES   REMARKS
BUFFALO          N/A    101  64  29 SE21      29.90F HX 104
FAITH            N/A     98  56  24 S15G25    29.96F HX  96
MOBRIDGE       MOSUNNY   83  63  50 E24G32    29.98S
$$

SDZ012>016-024>037-041>051-057-063-072>074-222100-
SOUTHWEST AND SOUTH CENTRAL SOUTH DAKOTA

CITY           SKY/WX    TMP DP  RH WIND       PRES   REMARKS
RAPID CTY ARPT SUNNY    100  56  23 S17G30    30.00F HX  99
PIERRE         SUNNY     97  71  42 E10       29.95F HX 104
CUSTER         SUNNY     85  48  27 SE6       30.21F
ELLSWORTH AFB  SUNNY    100  52  19 S23G32    29.98F HX  97
PHILIP         SUNNY    104  59  22 S16G25    29.95F HX 104
PINE RIDGE     PTSUNNY   99  52  20 SE20G31   30.01F HX  96
WINNER         FAIR      97  70  41 SE9G16    29.98F HX 103
$$

SDZ004>011-016>023-039-040-222100-
NORTHEAST SOUTH DAKOTA

CITY           SKY/WX    TMP DP  RH WIND       PRES   REMARKS
ABERDEEN       TSTM      85  76  74 NW17      30.08R
WATERTOWN      SUNNY     93  72  50 E8        30.04R HX 101
BROOKINGS      MOSUNNY   89  77  67 E9        30.01R HX 101
SISSETON         N/A     89  65  44 CALM      30.03S
$$

SDZ017-020-022-023-036>040-048>070-222100-
SOUTHEAST SOUTH DAKOTA

CITY           SKY/WX    TMP DP  RH WIND       PRES   REMARKS
SIOUX FALLS    PTSUNNY   92  77  61 E10       29.97F HX 105
HURON          SUNNY     96  75  50 VRB7      29.96S HX 108
CHAMBERLAIN    SUNNY     96  78  56 SE7       29.97F HX 113
MITCHELL       SUNNY     95  79  59 E10       29.95F HX 112
YANKTON        MOSUNNY   91  81  70 E10       29.92S HX 110
$$

ABBREVIATIONS USED IN REMARKS
   TC - TEMPERATURE IN CELSIUS
  WCI - WIND CHILL INDEX
   HX - HEAT INDEX
  VSB - VISIBILITY





USA.gov is the U.S. government's official web portal to all federal, state and local government web resources and services.